Regional Weather Roundup
Issued by NWS

Home | Current Version | Previous Version | Graphics & Text | Print | Product List | Glossary On
Versions: 1 2 3 4 5 6 7 8 9 10 11 12 13 14 15 16 17 18 19 20 21 22 23 24 25 26 27 28 29 30 31 32 33 34 35 36 37 38 39 40 41 42 43 44 45 46 47 48 49 50
000
ASUS43 KLOT 311206
RWRIL

ILLINOIS REGIONAL WEATHER ROUNDUP
NATIONAL WEATHER SERVICE CHICAGO/ROMEOVILLE IL
700 AM CDT FRI OCT 31 2014

NOTE: "FAIR" INDICATES FEW OR NO CLOUDS BELOW 12,000 FEET WITH NO
SIGNIFICANT WEATHER AND/OR OBSTRUCTIONS TO VISIBILITY.

* THESE STATIONS ARE NOT UNDER NWS QUALITY CONTROL. THEY ALSO MAY NOT
  REPORT WEATHER SUCH AS PRECIPITATION OR FOG.

ILZ001-002-007-009-015-016-024-311300-
NORTHWEST ILLINOIS

CITY           SKY/WX    TMP DP  RH WIND       PRES   REMARKS
MOLINE         PTCLDY    35  20  54 NW17G30   30.26R WCI  25
6HR MIN TEMP:  34; 6HR MAX TEMP:  49;

STERLING*      PTCLDY    34  19  55 N16G26    30.21R WCI  23
SAVANNA*       PTCLDY    35  22  59 N17G29    30.24R WCI  24
$$

ILZ003-004-008-010-011-017-018-311300-
NORTH CENTRAL ILLINOIS

CITY           SKY/WX    TMP DP  RH WIND       PRES   REMARKS
ROCKFORD       FLURRIES  34  28  79 N21G31    30.18R WCI  22
6HR MIN TEMP:  33; 6HR MAX TEMP:  47; 6HR PCP: TRACE;

FREEPORT*      CLOUDY    32  26  80 NW22G29   30.21R WCI  19
ROCHELLE*      CLOUDY    34  25  69 N23G35    30.15R WCI  22
DE KALB*       CLOUDY    33  24  71 NW17G25   30.13R WCI  22
PERU*          CLOUDY    37  24  60 N23G32    30.17R WCI  25
$$

ILZ005-006-012>014-019>023-311300-
NORTHEAST ILLINOIS

CITY           SKY/WX    TMP DP  RH WIND       PRES   REMARKS
CHICAGO-OHARE  MOCLDY    36  26  67 NW23G29   30.08R WCI  24
6HR MIN TEMP:  36; 6HR MAX TEMP:  47; 6HR PCP: TRACE;

CHICAGO-MIDWAY CLOUDY    40  29  64 NW23G30   30.07R
6HR MIN TEMP:  40; 6HR MAX TEMP:  49; 6HR PCP: TRACE;

AURORA         CLOUDY    37  25  61 N22G35    30.11R WCI  26
6HR MIN TEMP:  37; 6HR MAX TEMP:  46; 6HR PCP: TRACE;

LANSING*       CLOUDY    40  32  72 NW20G29   30.05R
JOLIET*        CLOUDY    37  26  63 N21G29    30.10R WCI  27
WAUKEGAN       LGT SNOW  32  30  92 NW10G21   30.09R FOG     WCI  24
6HR MIN TEMP:  32; 6HR MAX TEMP:  45; 6HR PCP:  0.01;

DUPAGE AIRPORT MOCLDY    37  25  61 N18G36    30.10R WCI  27
6HR MIN TEMP:  37; 6HR MAX TEMP:  47; 6HR PCP: TRACE;

KANKAKEE*      CLOUDY    41  30  65 NW18G33   30.07R
WHEELING       MOCLDY    37  28  70 NW17G26   30.10R WCI  27
6HR MIN TEMP:  37; 6HR MAX TEMP:  48; 6HR PCP: TRACE;

MORRIS*        CLOUDY    38  28  67 NW17G25   30.10R WCI  28
ROMEOVILLE*    CLOUDY    37  26  62 N18G32    30.09R WCI  27
NORTHERLY ISL    N/A     40  30  68 NW13        N/A
$$

LMZ740>746-311300-
SOUTHERN LAKE MICHIGAN

STATION/POSITION SKY/WX   TEMP    WIND        PRES    VSBY  WAVE
                          AIR SEA DIR/SP/G                  HT/PER
                          (F)     (DEG/KT/KT) (MB)    (MI)  (FT/S)
SOUTHERN BUOY              41 53  330/ 29/ 37 1015.9R         8/ 6
WAUKEGAN HARBOR            36     320/ 18/ 25   N/A
HARRISON CRIB              42     320/ 29/ 33   N/A
BURNHAM HARBOR             39     310/ 11/ 17   N/A
CALUMET HARBOR             40     310/ 10/ 19 1016.5R
MICHIGAN CITY              43     310/ 32/ 36   N/A
$$

ILZ025>027-034>036-040-047-049-050-058-095>099-311300-
WEST-CENTRAL ILLINOIS

CITY           SKY/WX    TMP DP  RH WIND       PRES   REMARKS
QUINCY         CLEAR     37  23  56 N17G32    30.26R WCI  27
GALESBURG*     CLEAR     33  23  66 NW20G25   30.24R WCI  22
MACOMB*        CLEAR     35  23  62 NW23G31   30.27R WCI  23
JACKSONVILLE*  CLOUDY    44  28  53 N20G30    30.19R
PITTSFIELD*    PTCLDY    41  27  58 NW21G37   30.24R
$$

ILZ028>032-037-038-041>044-048-051>054-059>061-311300-
CENTRAL ILLINOIS

CITY           SKY/WX    TMP DP  RH WIND       PRES   REMARKS
PONTIAC        CLOUDY    39  29  66 NW22G29   30.13R WCI  29
BLOOMINGTON    CLOUDY    38  26  62 N26G33    30.13R WCI  26
DECATUR        CLOUDY    43  36  76 NW17G26   30.12R
PEORIA         MOCLDY    39  22  50 N14G29    30.18R WCI  31
6HR MIN TEMP:  39; 6HR MAX TEMP:  48; 6HR PCP:  0.01;

LACON*         PTCLDY    35  19  52 N21G28    30.17R WCI  23
LINCOLN*       CLOUDY    42  29  62 NW10G18   30.14R
SPRINGFIELD    CLOUDY    43  25  49 N17G30    30.17R
6HR MIN TEMP:  43; 6HR MAX TEMP:  47; 6HR PCP: TRACE;

TAYLORVILLE    CLOUDY    43  34  70 N22G31    30.14R
$$

ILZ033-039-045-046-055>057-062-063-311300-
EAST-CENTRAL ILLINOIS

CITY           SKY/WX    TMP DP  RH WIND       PRES   REMARKS
CHAMPAIGN      CLOUDY    42  36  79 NW16G22   30.08R
DANVILLE*      CLOUDY    40  35  83 N18G24    30.02R
RANTOUL*       CLOUDY    43  37  78 N8        30.07R
MATTOON        LGT RAIN  45  41  86 NW16      30.07R
PARIS*         LGT RAIN  44  42  93 NW10      30.05S
$$

ILZ079-100>102-311300-
SOUTHWEST ILLINOIS

CITY           SKY/WX    TMP DP  RH WIND       PRES   REMARKS
ALTON          CLOUDY    46  39  76 NW16G23   30.15S
BELLEVILLE     MOCLDY    47  44  88 NW13G22   30.13R
CAHOKIA*       CLOUDY    49  41  74 N15G26    30.16R
SPARTA*        CLOUDY    46  44  91 NW8       30.13R
$$

ILZ064>066-069>071-074>076-080>082-084>086-088>090-092>094-311300-
SOUTH-CENTRAL ILLINOIS

CITY           SKY/WX    TMP DP  RH WIND       PRES   REMARKS
CARBONDALE     CLOUDY    49  45  86 N8        30.10R
6HR MIN TEMP:  47; 6HR MAX TEMP:  51;

CAIRO*         CLOUDY    52  48  86 N5        30.06R
EFFINGHAM*     CLOUDY    46  40  80 NW14      30.08S
MARION         CLOUDY    50  48  93 NW14      30.09R
MT. VERNON     CLOUDY    46  41  81 CALM      30.10R
CENTRALIA*     CLOUDY    47  42  84 NW10      30.10R
SALEM*         CLOUDY    48  46  90 NW10      30.10R
METROPOLIS*    CLOUDY    50  50 100 CALM      30.04R
$$

ILZ067-068-072-073-078-083-087-091-311300-
SOUTHEAST ILLINOIS

CITY           SKY/WX    TMP DP  RH WIND       PRES   REMARKS
LAWRENCEVILLE  CLOUDY    46  44  93 NW8       30.06R
FLORA*         PTCLDY    46  44  94 NW8       30.08R
FAIRFIELD*     CLOUDY    47  45  93 NW5       30.07R
HARRISBURG*    CLOUDY    48  47  94 N6        30.08R
ROBINSON*      CLOUDY    47  45  93 NW7       30.06S
CARMI*         PTCLDY    47  47  97 NW8       30.06R
$$

ABBREVIATIONS USED IN REMARKS
   TC - TEMPERATURE IN CELSIUS
  WCI - WIND CHILL INDEX
   HX - HEAT INDEX
  VSB - VISIBILITY
$$




USA.gov is the U.S. government's official web portal to all federal, state and local government web resources and services.